Flag for Canada Weather past 2 weeks in Burnaby, British Columbia, Canada

Now
45 °F

Light rain. Fog.


Feels Like: 38 °F
Forecast: 42 / 47 °F
Wind: 14 mph from East

Location: Vancouver International Air-Port

Current Time: Dec 20, 2014 at 3:24:26 PM

Latest Report: Dec 20, 2014 at 3:00 PM


Visibility: 6 mi

Pressure: 29.41 "Hg

Humidity: 93%

Dew point: 43 °F

Location of BurnabyLocation

Historic Weather in Burnaby — Graph

°F

Burnaby temperature yesterday

Maximum temperature yesterday: 48 °F (at 1:00 PM)
Minimum temperature yesterday: 43 °F (at 9:00 AM)
Average temperature yesterday: 46 °F

Past Weeks' High & Low Weather Summary

 TemperatureHumidityPressure
High59 °F (Dec 9, 1:00 PM)100% (Dec 5, 1:00 PM)30.26 "Hg (Dec 5, 1:00 PM)
Low28 °F (Dec 15, 4:00 AM)66% (Dec 15, 1:00 PM)29.15 "Hg (Dec 11, 6:00 PM)
Average46 °F89%29.83 "Hg
* Reported Dec 5 1:00 PM — Dec 20 1:00 PM, Burnaby, Weather by CustomWeather, © 2014

Note: Actual official high and low records may vary slightly from our data, if they occured in-between our weather recording intervals... More about our weather records

Advertising

Burnaby weather history for previous 24 hours

 ConditionsComfort  
Time TempWeatherWind HumidityBarometerVisibility
1:00 PM
Dec 20
45 °FLight rain. Fog.14 mph93%29.48 "Hg6 mi
12:00 PM46 °FLight rain. Mostly cloudy.12 mph87%29.51 "Hg15 mi
11:00 AM46 °FOvercast.12 mph82%29.56 "Hg15 mi
10:00 AM45 °FOvercast.16 mph87%29.59 "Hg15 mi
9:00 AM43 °FLight rain. Overcast.18 mph93%29.61 "Hg8 mi
8:00 AM45 °FLight rain. Fog.18 mph87%29.61 "Hg5 mi
7:00 AM45 °FLight rain. Overcast.17 mph87%29.62 "Hg8 mi
6:00 AM45 °FLight rain. Overcast.15 mph87%29.64 "Hg10 mi
5:00 AM45 °FLight rain. Overcast.14 mph87%29.65 "Hg12 mi
4:00 AM46 °FMostly cloudy.10 mph82%29.69 "Hg15 mi
3:00 AM45 °FLight rain. Mostly cloudy.18 mph87%29.72 "Hg15 mi
2:00 AM46 °FLight rain. Mostly cloudy.18 mph82%29.75 "Hg15 mi
1:00 AM45 °FLight rain. Mostly cloudy.14 mph87%29.78 "Hg15 mi
12:00 AM46 °FLight rain. Overcast.14 mph82%29.81 "Hg15 mi
11:00 PM
Dec 19
48 °FLight rain. Overcast.15 mph76%29.84 "Hg15 mi
10:00 PM46 °FMostly cloudy.14 mph82%29.84 "Hg15 mi
9:00 PM46 °FMostly cloudy.14 mph87%29.85 "Hg15 mi
8:00 PM46 °FMostly cloudy.12 mph87%29.88 "Hg15 mi
7:00 PM46 °FOvercast.13 mph87%29.90 "Hg15 mi
6:00 PM46 °FOvercast.10 mph93%29.90 "Hg15 mi
5:00 PM46 °FMostly cloudy.10 mph93%29.90 "Hg15 mi
4:00 PM46 °FCloudy.12 mph93%29.91 "Hg15 mi
3:00 PM46 °FLight rain. Cloudy.9 mph93%29.91 "Hg15 mi
Weather by CustomWeather, © 2014

See weather overviewHow to use our weather pages